Find Starlink 31603

NORAD ID: 59201 Int'l Des: 2024-046 Owner: SPXS Country: US Constellation: starlink operational
LEOCIRCULAR

現在のビュー

3D地球を読み込み中...

About Starlink 31603

Starlink 31603 (NORAD 59201) is a starlink constellation satellite (v2 mini) launched Mar 11, 2024 by SPXS of US. It operates in LEO, CIRCULAR orbit with a mass of 730.00 kg.

Starlink 31603について

説明を読み込み中...

次回通過

Passes for default location (London). Set your location on the main map for personalized predictions.

高度履歴

Loading altitude history...

軌道要素

1 59201U 24046A 26165.99584981 .00000132 00000-0 16586-4 0 9992
2 59201 53.1616 63.6456 0001115 95.6237 264.4890 15.30202281127941
Epoch: Jun 14, 2026 • Age: 22 hours

現在のステータス

高度 481.0 km
速度 7.63 km/s
衛星直下点 53.06°N, 95.93°W
打ち上げ日 Mar 11, 2024
運用期間 2.2 years
タイプ internet

技術仕様

分類 Payload
質量 730.00 kg
乾燥質量 700.00 kg
総質量 730.00 kg
長さ 0.30 m
直径 4.10 m
スパン 29.00 m
形状 Box + pan
製造者 SPXS
バスタイプ Starlink V2M
フェーズステータス In Orbit
所有者/国 SPXS/US

Most Searched